Stations météo

réclame
Mon MeteoGroup
Zinnwald-Georgenfeld, Allemagne (10582): Température de l'air & dewpoint: 14.10.2018 19:00:00 - 20.10.2018 19:00:00 (CEST)Zinnwald-Georgenfeld, Allemagne (10582): Température de l'air 5cm & Température de l'air -5cm: 14.10.2018 19:00:00 - 20.10.2018 19:00:00 (CEST)Zinnwald-Georgenfeld, Allemagne (10582): Température de l'air -20cm & Température de l'air -100cm: 14.10.2018 19:00:00 - 20.10.2018 19:00:00 (CEST)Zinnwald-Georgenfeld, Allemagne (10582): Vitesse du vent & gusts: 14.10.2018 19:00:00 - 20.10.2018 19:00:00 (CEST)Zinnwald-Georgenfeld, Allemagne (10582): Direction du vent: 14.10.2018 19:00:00 - 20.10.2018 19:00:00 (CEST)Zinnwald-Georgenfeld, Allemagne (10582): visibility: 14.10.2018 19:00:00 - 20.10.2018 19:00:00 (CEST)Zinnwald-Georgenfeld, Allemagne (10582): Ensoleillement: 14.10.2018 19:00:00 - 20.10.2018 19:00:00 (CEST)Zinnwald-Georgenfeld, Allemagne (10582): Quantités de précipitations: 14.10.2018 19:00:00 - 20.10.2018 19:00:00 (CEST)
Date & Time tt [°C] td [°C] tt 5cm [°C] tt -5cm [°C] tt -20cm [°C] tt -100cm [°C] ff [km/h] ff [knt] fx [km/h] fx [knt] dd vv [km] sd [min] rr [mm]
20.10.2018 19:00:00 4,4 2,8 3,9 6,8 9,8 11,2 19 11 30 16 NNW 11 0 0,0
20.10.2018 18:00:00 4,8 2,9 4,3 7,7 9,9 11,2 19 11 34 19 NNW 12 0 0,0
20.10.2018 17:00:00 6,0 3,5 6,3 9,6 9,9 11,2 20 11 32 18 NNW 15 3 0,0
20.10.2018 16:00:00 6,4 3,5 6,8 10,3 9,8 11,2 19 11 30 16 NNW 18 0 0,0
20.10.2018 15:00:00 7,2 3,1 7,9 11,3 9,6 11,2 19 10 31 17 NNW 21 31 0,0
20.10.2018 14:00:00 7,6 3,3 10,5 10,9 9,3 11,2 18 10 35 19 NW 25 17 0,0
20.10.2018 13:00:00 7,5 3,8 9,3 12,5 8,9 11,2 16 9 29 16 NNW 27 50 0,0
20.10.2018 12:00:00 6,7 3,7 8,6 11,1 8,6 11,2 14 8 26 14 NNW 21 26 0,0
20.10.2018 11:00:00 6,0 4,6 7,1 9,3 8,5 11,2 14 8 23 12 N 18 18 0,0
20.10.2018 10:00:00 4,9 3,8 5,3 7,3 8,5 11,2 11 6 17 9 N 13 0 0,0
20.10.2018 09:00:00 4,9 4,1 4,8 6,4 8,7 11,2 11 6 18 10 N 4,4 0 0,0
20.10.2018 08:00:00 5,1 4,2 4,4 5,6 8,9 11,2 14 8 21 12 N 5 0 0,0
20.10.2018 07:00:00 5,6 3,4 4,5 6,3 9,1 11,2 16 9 22 12 N 50 0 0,0
20.10.2018 06:00:00 5,4 4,5 5,1 6,6 9,2 11,2 13 7 15 8 N 16 0 0,0
20.10.2018 05:00:00 5,3 4,1 4,9 6,9 9,4 11,2 14 7 17 9 N 19 0 0,0
20.10.2018 04:00:00 5,6 4,6 5,1 7,4 9,6 11,2 10 5 13 7 N 13 0 0,0
20.10.2018 03:00:00 6,4 6,2 6,4 7,8 9,7 11,2 10 5 14 7 N 0,1 0 0,0
20.10.2018 02:00:00 6,7 6,4 6,6 8,1 9,8 11,2 8 4 13 7 NNE 0,3 0 0,0
20.10.2018 01:00:00 7,0 6,7 7,0 8,3 9,9 11,2 9 5 13 7 NNE 0,1 0 0,0
20.10.2018 00:00:00 7,2 6,9 7,1 8,4 10,1 11,2 8 4 10 5 N 0,1 0 0,0
19.10.2018 23:00:00 7,4 7,1 7,2 8,8 10,2 11,2 7 4 9 5 N 0,4 0 0,0
19.10.2018 22:00:00 7,5 7,2 7,6 9,1 10,3 11,2 4 2 9 5 NNE 0,4 0 0,0
19.10.2018 21:00:00 7,6 7,4 7,7 9,3 10,4 11,2 4 2 9 5 NNE 0,1 0 0,0
19.10.2018 20:00:00 7,7 7,4 7,9 9,6 10,5 11,2 6 3 10 5 NE 0,1 0 0,0
19.10.2018 19:00:00 8,1 7,7 8,2 10,1 10,6 11,2 5 3 7 4 NNE 0,1 0 0,0
19.10.2018 18:00:00 8,6 8,3 8,6 10,6 10,6 11,2 3 2 7 4 N 0,8 0 0,0
19.10.2018 17:00:00 8,8 8,3 9,3 11,3 10,5 11,2 5 3 10 5 N 7 0 0,0
19.10.2018 16:00:00 8,6 8,3 9,4 11,4 10,5 11,2 7 4 12 6 NNE 0,2 0 0,0
19.10.2018 15:00:00 8,6 8,4 9,0 11,0 10,4 11,2 9 5 14 8 N 0,2 0 0,0
19.10.2018 14:00:00 8,5 8,3 8,9 10,9 10,3 11,2 10 5 17 9 NNE 0,1 0 0,0
19.10.2018 13:00:00 8,9 8,5 9,5 11,5 10,2 11,2 11 6 21 11 N 3,9 0 0,0
19.10.2018 12:00:00 8,9 8,7 9,8 11,3 10,1 11,2 10 5 16 9 N 1,0 0 0,0
19.10.2018 11:00:00 8,5 8,3 9,0 10,4 10,0 11,2 10 6 16 9 N 0,1 0 0,1
19.10.2018 10:00:00 8,9 8,7 9,4 10,4 10,0 11,2 9 5 16 9 N 0,1 0 0,1
19.10.2018 09:00:00 8,7 8,5 8,8 9,7 10,0 11,2 10 6 18 10 NNW 0,1 0 0,1
19.10.2018 08:00:00 8,7 8,5 8,7 9,3 10,0 11,2 12 6 20 11 N 0,1 0 0,0
19.10.2018 07:00:00 8,7 8,5 8,6 9,3 10,1 11,2 13 7 20 11 N 0,2 0 0,0
19.10.2018 06:00:00 8,7 8,4 8,6 9,3 10,1 11,2 12 6 19 10 N 0,4 0 0,1
19.10.2018 05:00:00 8,6 8,3 8,5 9,3 10,2 11,2 12 7 19 10 NNW 0,1 0 0,0
19.10.2018 04:00:00 8,4 8,1 8,3 9,2 10,3 11,2 14 7 22 12 N 0,7 0 0,0
19.10.2018 03:00:00 8,2 8,0 8,2 9,1 10,4 11,2 13 7 19 10 N 0,2 0 0,0
19.10.2018 02:00:00 8,0 7,8 8,0 9,0 10,6 11,2 11 6 19 11 NW 0,1 0 0,0
19.10.2018 01:00:00 7,9 7,1 6,9 8,6 10,8 11,2 14 8 20 11 NNW 3,8 0 0,1
19.10.2018 00:00:00 7,6 7,4 7,6 9,4 11,0 11,2 14 8 21 11 WNW 0,1 0 0,0
18.10.2018 23:00:00 7,8 7,6 7,9 9,8 11,2 11,2 12 7 22 12 NW 0,1 0 0,0
18.10.2018 22:00:00 7,9 7,7 7,8 9,9 11,4 11,2 14 7 19 11 WNW 0,1 0 0,0
18.10.2018 21:00:00 8,3 8,0 8,3 10,4 11,6 11,3 13 7 20 11 WNW 0,1 0 0,0
18.10.2018 20:00:00 8,8 8,1 8,6 10,6 11,8 11,3 11 6 21 12 NNW 0,3 0 0,0
18.10.2018 19:00:00 9,4 8,3 8,4 10,8 12,1 11,3 13 7 21 12 NNW 1,1 0 0,0
18.10.2018 18:00:00 10,1 7,9 8,9 12,1 12,1 11,3 14 8 24 13 N 2,2 3 0,0
18.10.2018 17:00:00 11,3 8,0 10,7 14,1 11,9 11,3 16 9 26 14 N 3,2 48 0,0
18.10.2018 16:00:00 13,4 7,9 14,1 16,2 11,4 11,3 16 9 27 15 NNW 5 60 0,0
18.10.2018 15:00:00 13,9 7,9 16,1 16,7 10,8 11,3 14 7 22 12 NNW 6 55 0,0
18.10.2018 14:00:00 14,2 7,9 17,6 17,0 10,1 11,3 9 5 14 8 N 7 57 0,0
18.10.2018 13:00:00 13,8 7,8 17,1 15,2 9,5 11,3 9 5 15 8 N 7 54 0,0
18.10.2018 12:00:00 13,5 8,3 16,2 13,7 9,0 11,3 8 4 17 9 N 6 57 0,0
18.10.2018 11:00:00 11,8 8,0 11,8 10,8 8,6 11,3 11 6 17 9 NNW 4,4 38 0,0
18.10.2018 10:00:00 11,4 8,4 12,7 9,4 8,5 11,3 12 6 17 9 NNW 4,0 27 0,0
18.10.2018 09:00:00 9,5 7,4 8,9 6,9 8,6 11,3 11 6 17 9 NNW 3,1 10 0,0
18.10.2018 08:00:00 9,0 7,0 6,5 5,7 8,7 11,3 12 6 15 8 NNW 3,0 0 0,0
18.10.2018 07:00:00 9,2 7,0 6,2 5,7 8,9 11,3 9 5 14 8 NNW 3,1 0 0,0
18.10.2018 06:00:00 9,1 6,6 5,6 5,6 9,1 11,3 14 7 16 9 WNW 3,5 0 0,0
18.10.2018 05:00:00 9,5 6,5 5,2 5,7 9,4 11,3 14 7 15 8 WNW 4,1 0 0,0
18.10.2018 04:00:00 10,4 6,4 4,1 5,9 9,6 11,3 10 5 12 7 W 6 0 0,0
18.10.2018 03:00:00 10,5 6,8 4,1 6,3 9,9 11,3 8 4 14 7 W 6 0 0,0
18.10.2018 02:00:00 10,6 6,8 7,0 6,8 10,1 11,3 13 7 16 9 SW 8 0 0,0
18.10.2018 01:00:00 10,2 6,7 6,8 7,0 10,4 11,3 16 9 18 10 SW 8 0 0,0
18.10.2018 00:00:00 9,7 6,4 6,3 7,2 10,7 11,3 13 7 15 8 SSW 6 0 0,0
17.10.2018 23:00:00 9,2 6,0 5,7 7,6 11,1 11,3 13 7 14 8 SSW 7 0 0,0
17.10.2018 22:00:00 9,3 6,3 5,7 8,0 11,5 11,3 11 6 13 7 SSW 7 0 0,0
17.10.2018 21:00:00 8,9 6,0 5,9 8,6 11,9 11,3 11 6 16 9 S 7 0 0,0
17.10.2018 20:00:00 8,8 6,0 5,7 9,5 12,3 11,3 13 7 16 9 SSE 7 0 0,0
17.10.2018 19:00:00 9,5 6,0 6,3 10,7 12,5 11,3 11 6 15 8 S 8 0 0,0
17.10.2018 18:00:00 11,2 6,6 8,9 12,7 12,6 11,3 13 7 15 8 S 10 45 0,0
17.10.2018 17:00:00 13,2 7,3 12,4 15,1 12,4 11,3 11 6 18 10 S 11 60 0,0
17.10.2018 16:00:00 14,1 7,3 15,7 16,6 11,9 11,3 15 8 20 11 S 12 60 0,0
17.10.2018 15:00:00 14,6 7,3 17,1 17,8 11,2 11,3 14 8 20 11 S 12 60 0,0
17.10.2018 14:00:00 14,6 7,1 17,5 17,5 10,5 11,3 15 8 21 11 S 13 60 0,0
17.10.2018 13:00:00 15,1 7,5 18,1 16,6 9,7 11,3 11 6 18 10 S 17 60 0,0
17.10.2018 12:00:00 14,1 7,8 16,6 14,6 9,1 11,3 13 7 20 11 SSE 12 60 0,0
17.10.2018 11:00:00 13,3 7,9 15,0 12,0 8,8 11,3 14 8 23 12 S 11 60 0,0
17.10.2018 10:00:00 11,3 7,2 12,2 9,1 8,6 11,3 15 8 19 11 S 10 60 0,0
17.10.2018 09:00:00 9,1 6,5 9,1 6,6 8,8 11,3 11 6 17 9 S 9 42 0,0
17.10.2018 08:00:00 7,3 5,4 5,1 5,4 9,0 11,3 16 8 17 9 S 7 0 0,0
17.10.2018 07:00:00 8,6 5,5 5,2 5,5 9,2 11,3 11 6 16 9 S 11 0 0,0
17.10.2018 06:00:00 8,6 5,1 5,4 5,8 9,4 11,3 15 8 18 10 S 12 0 0,0
17.10.2018 05:00:00 8,5 5,0 5,3 6,0 9,7 11,3 15 8 18 10 S 11 0 0,0
17.10.2018 04:00:00 8,4 5,0 5,0 6,3 9,9 11,3 14 8 19 10 S 10 0 0,0
17.10.2018 03:00:00 8,6 5,0 5,5 6,6 10,2 11,3 17 9 21 11 S 12 0 0,0
17.10.2018 02:00:00 8,9 5,0 6,3 6,8 10,5 11,3 19 11 21 11 S 14 0 0,0
17.10.2018 01:00:00 9,5 5,2 6,7 7,2 10,8 11,3 16 9 20 11 S 16 0 0,0
17.10.2018 00:00:00 9,3 5,3 5,2 7,5 11,2 11,3 8 5 16 9 S 12 0 0,0
16.10.2018 23:00:00 9,3 5,2 5,4 7,9 11,5 11,3 10 5 14 8 S 11 0 0,0
16.10.2018 22:00:00 9,8 5,2 4,6 8,5 11,9 11,3 8 4 11 6 SSW 13 0 0,0
16.10.2018 21:00:00 9,9 5,0 5,9 9,5 12,3 11,3 8 4 13 7 S 16 0 0,0
16.10.2018 20:00:00 10,7 5,1 7,5 10,3 12,7 11,3 11 6 12 7 SW 18 0 0,0
16.10.2018 19:00:00 10,1 4,9 7,2 11,5 12,9 11,3 9 5 12 7 S 18 0 0,0
16.10.2018 18:00:00 10,9 5,2 8,5 13,1 13,0 11,3 11 6 17 9 S 19 0 0,0
16.10.2018 17:00:00 13,0 5,6 12,0 15,4 12,8 11,3 12 7 19 10 S 19 53 0,0
16.10.2018 16:00:00 14,2 5,5 15,8 17,0 12,4 11,3 16 8 22 12 S 18 60 0,0
16.10.2018 15:00:00 14,9 5,7 17,7 18,3 11,8 11,3 14 8 24 13 S 14 60 0,0
16.10.2018 14:00:00 14,2 5,8 17,6 17,8 11,1 11,3 16 9 26 14 SSE 15 60 0,0
16.10.2018 13:00:00 13,5 5,5 16,7 16,9 10,5 11,3 16 9 23 12 S 14 60 0,0
16.10.2018 12:00:00 13,3 5,2 16,1 15,4 10,0 11,3 15 8 20 11 SSE 19 60 0,0
16.10.2018 11:00:00 12,0 5,1 14,4 13,0 9,6 11,3 16 9 25 14 S 14 58 0,0
16.10.2018 10:00:00 9,6 4,5 10,8 10,0 9,6 11,3 17 9 24 13 S 22 1 0,0
16.10.2018 09:00:00 8,8 4,0 8,8 8,9 9,6 11,3 18 10 30 16 S 25 41 0,0
16.10.2018 08:00:00 8,1 3,8 7,7 8,0 9,7 11,3 19 10 30 16 SSE 24 0 0,0
16.10.2018 07:00:00 8,3 3,6 7,8 8,0 9,8 11,3 23 12 31 17 SSE 26 0 0,0
16.10.2018 06:00:00 8,4 3,7 7,7 8,2 9,9 11,3 21 12 33 18 SSE 24 0 0,0
16.10.2018 05:00:00 8,7 3,8 8,0 8,2 10,0 11,3 24 13 35 19 SSE 26 0 0,0
16.10.2018 04:00:00 9,0 4,1 8,1 8,4 10,2 11,3 29 16 37 20 SSE 26 0 0,0
16.10.2018 03:00:00 9,3 4,3 8,7 8,8 10,3 11,3 28 15 37 20 SSE 28 0 0,0
16.10.2018 02:00:00 9,6 4,6 9,1 9,1 10,4 11,3 25 14 37 20 SSE 25 0 0,0
16.10.2018 01:00:00 10,1 4,1 9,6 9,1 10,5 11,3 27 15 37 20 SSE 27 0 0,0
16.10.2018 00:00:00 10,1 4,1 9,5 9,0 10,7 11,3 27 15 38 21 SSE 28 0 0,0
15.10.2018 23:00:00 10,2 4,1 9,2 8,7 10,9 11,3 25 14 36 20 SSE 23 0 0,0
15.10.2018 22:00:00 10,4 3,8 9,0 9,0 11,1 11,3 26 14 37 20 SSE 27 0 0,0
15.10.2018 21:00:00 11,2 3,7 9,7 9,5 11,4 11,3 29 16 43 23 SSE 30 0 0,0
15.10.2018 20:00:00 12,2 3,7 10,7 10,2 11,6 11,3 29 16 39 21 SSE 30 0 0,0
15.10.2018 19:00:00 12,3 2,3 10,9 10,7 11,7 11,3 22 12 31 17 SSE 35 0 0,0
15.10.2018 18:00:00 12,7 1,9 11,5 12,1 11,8 11,3 24 13 40 22 SSE 31 0 0,0
15.10.2018 17:00:00 13,3 1,7 13,0 13,2 11,7 11,3 29 16 40 22 SSE 27 0 0,0
15.10.2018 16:00:00 13,2 2,1 13,2 14,3 11,4 11,3 29 16 40 22 S 22 0 0,0
15.10.2018 15:00:00 13,4 1,7 13,7 16,1 10,8 11,3 27 15 42 23 SSE 22 34 0,0
15.10.2018 14:00:00 14,8 2,6 18,9 16,3 10,2 11,3 29 16 47 26 SSE 15 48 0,0
15.10.2018 13:00:00 12,3 1,4 13,6 14,8 9,7 11,3 34 18 47 26 SSE 17 52 0,0
15.10.2018 12:00:00 12,1 1,6 14,0 12,4 9,3 11,3 27 15 41 22 SSE 15 48 0,0
15.10.2018 11:00:00 10,5 1,2 10,6 9,9 9,1 11,3 29 15 40 21 SSE 20 40 0,0
15.10.2018 10:00:00 10,0 1,2 10,0 8,6 9,1 11,3 23 12 36 19 SSE 24 59 0,0
15.10.2018 09:00:00 9,2 1,7 9,0 6,7 9,3 11,3 24 13 38 20 SSE 19 32 0,0
15.10.2018 08:00:00 8,2 1,5 6,9 6,2 9,5 11,3 26 14 37 20 SSE 25 0 0,0
15.10.2018 07:00:00 8,2 1,6 6,7 6,4 9,7 11,3 26 14 41 22 SSE 32 0 0,0
15.10.2018 06:00:00 8,6 1,8 7,3 6,8 9,9 11,3 31 17 51 28 SSE 32 0 0,0
15.10.2018 05:00:00 9,0 2,0 7,9 7,2 10,1 11,3 37 20 54 29 SSE 36 0 0,0
15.10.2018 04:00:00 9,1 2,0 7,9 7,3 10,4 11,3 34 18 47 26 SSE 37 0 0,0
15.10.2018 03:00:00 9,4 2,3 8,0 7,6 10,6 11,3 31 17 55 30 SSE 35 0 0,0
15.10.2018 02:00:00 9,9 2,2 8,6 8,0 10,9 11,2 35 19 60 33 SSE 35 0 0,0
15.10.2018 01:00:00 10,2 2,2 8,8 8,4 11,1 11,2 39 21 56 30 SSE 42 0 0,0
15.10.2018 00:00:00 10,5 2,3 9,2 8,7 11,4 11,2 38 20 56 30 S 40 0 0,0
14.10.2018 23:00:00 10,8 2,3 9,6 9,2 11,7 11,2 40 22 59 32 SSE 39 0 0,0
14.10.2018 22:00:00 11,4 2,5 10,2 9,7 12,0 11,2 40 22 61 33 SSE 38 0 0,0
14.10.2018 21:00:00 12,1 3,6 10,5 10,3 12,3 11,2 34 18 50 27 S 35 0 0,0
14.10.2018 20:00:00 13,2 4,6 11,3 11,3 12,6 11,2 25 14 47 25 S 29 0 0,0
14.10.2018 19:00:00 14,9 5,0 13,1 12,4 12,7 11,2 26 14 54 29 S 27 0 0,0

tt = Température de l'air
td = dewpoint
tt 5cm = Température de l'air 5cm
tt -5cm = Température de l'air -5cm
tt -20cm = Température de l'air -20cm
tt -100cm = Température de l'air -100cm
ff = Vitesse du vent
fx = gusts
dd = Direction du vent
vv = visibility
sd = Ensoleillement
rr = Quantités de précipitations

stations d'obs. à proximité